Saint John's, Canada

1:52 AM NST on January 23, 2017 (GMT -0330)
Saint John's

Weather History for 71801 - January, 2014

Change the Weather History Date:

Tuesday, January 21, 2014

  Actual Average Record
Temperature  
Mean Temperature 30 °F -  
Max Temperature 38 °F 30 °F - ()
Min Temperature 21 °F 17 °F - ()
Degree Days  
Heating Degree Days 36    
Moisture  
Dew Point 25 °F    
Average Humidity 80    
Maximum Humidity 93    
Minimum Humidity 58    
Precipitation  
Precipitation 0.03 in 0.18 in - ()
Sea Level Pressure  
Sea Level Pressure 29.71 in    
Wind  
Wind Speed 18 mph ()    
Max Wind Speed 29 mph    
Max Gust Speed 38 mph    
Visibility 14.8 miles    
Events Rain , Snow    
T = Trace of Precipitation, MM = Missing Value Source: Averaged Metar Reports

Daily Weather History Graph

Daily Weather History Graph

Search for Another Location

Airport or City:

Trip Planner

Search our weather history database for the weather conditions in past years. The results will help you decide how hot, cold, wet, or windy it might be!

Date:

Astronomy

Jan. 21, 2014 Rise Set
Actual Time 7:39 AM NST 4:45 PM NST
Civil Twilight 7:05 AM NST 5:19 PM NST
Nautical Twilight 6:27 AM NST 5:57 PM NST
Astronomical Twilight 5:51 AM NST 6:33 PM NST
Moon 10:38 PM NST (1/21) 9:41 AM NST (1/21)
Length of Visible Light 10h 13m
Length of Day
9h 05m
Waning Gibbous, 75% of the Moon is Illuminated
Jan 21
Waning Gibbous
Jan 24
Last Quarter
Jan 30
New
Feb 6
First Quarter
Feb 14
Full

Hourly Weather History & Observations

Time (NST) Temp. Windchill Dew Point Humidity Pressure Visibility Wind Dir Wind Speed Gust Speed Precip Events Conditions
12:30 AM 30.2 °F 21.3 °F 28.4 °F 93% 29.61 in 15.0 mi South 10.4 mph - N/A   Mostly Cloudy
1:30 AM 32.0 °F 21.6 °F 28.4 °F 87% 29.57 in 15.0 mi South 15.0 mph 21.9 mph N/A   Overcast
2:30 AM 34 °F - 31 °F 82% 29.57 in 15 mi South 21.9 mph - -   Overcast
2:30 AM 33.8 °F 22.5 °F 30.2 °F 87% 29.57 in 15.0 mi South 19.6 mph 31.1 mph N/A   Overcast
2:36 AM 33.8 °F 22.5 °F 30.2 °F 87% 29.57 in 12.0 mi South 19.6 mph 31.1 mph N/A Rain Light Rain Showers
3:30 AM 35.6 °F 25.2 °F 33.8 °F 93% 29.55 in 12.0 mi SSW 18.4 mph 26.5 mph N/A Rain Light Rain Showers
4:30 AM 35.6 °F 25.5 °F 33.8 °F 93% 29.52 in 15.0 mi SSW 17.3 mph 27.6 mph N/A Rain Light Rain Showers
5:13 AM 37.4 °F 27.2 °F 35.6 °F 93% 29.51 in 15.0 mi SW 19.6 mph - N/A   Overcast
5:30 AM 37.4 °F 27.2 °F 35.6 °F 93% 29.51 in 15.0 mi SW 19.6 mph 26.5 mph N/A   Mostly Cloudy
6:30 AM 37.4 °F 25.2 °F 33.8 °F 87% 29.51 in 15.0 mi WSW 28.8 mph 38.0 mph N/A   Mostly Cloudy
7:30 AM 33.8 °F 22.2 °F 32.0 °F 93% 29.54 in 15.0 mi WSW 20.7 mph 32.2 mph N/A   Scattered Clouds
8:30 AM 34 °F - 30 °F 79% 29.57 in 15 mi WSW 24.2 mph - -   Partly Cloudy
8:30 AM 33.8 °F 21.6 °F 30.2 °F 87% 29.56 in 15.0 mi WSW 23.0 mph 32.2 mph N/A   Scattered Clouds
9:30 AM 33.8 °F 21.0 °F 30.2 °F 87% 29.60 in 15.0 mi WSW 25.3 mph - N/A   Scattered Clouds
10:30 AM 33.8 °F 21.0 °F 26.6 °F 75% 29.64 in 15.0 mi WSW 25.3 mph 33.4 mph N/A   Partly Cloudy
11:30 AM 33.8 °F 21.6 °F 24.8 °F 70% 29.66 in 15.0 mi WSW 23.0 mph 33.4 mph N/A   Scattered Clouds
12:30 PM 30.2 °F 16.5 °F 24.8 °F 80% 29.70 in 15.0 mi West 24.2 mph 33.4 mph N/A   Mostly Cloudy
1:30 PM 30.2 °F 17.8 °F 23.0 °F 75% 29.71 in 15.0 mi WSW 19.6 mph 29.9 mph N/A   Mostly Cloudy
2:30 PM 31 °F - 22 °F 59% 29.73 in 15 mi WSW 24.2 mph - -   Scattered Clouds
2:30 PM 30.2 °F 16.8 °F 21.2 °F 69% 29.73 in 15.0 mi WSW 23.0 mph 35.7 mph N/A   Scattered Clouds
3:30 PM 30.2 °F 18.5 °F 24.8 °F 80% 29.77 in 15.0 mi WSW 17.3 mph 32.2 mph N/A   Mostly Cloudy
3:42 PM 30.2 °F 16.2 °F 24.8 °F 80% 29.78 in 15.0 mi WSW 25.3 mph 32.2 mph N/A Snow Light Snow Showers
4:10 PM 28.4 °F 15.4 °F 23.0 °F 80% 29.79 in 15.0 mi West 19.6 mph 29.9 mph N/A   Mostly Cloudy
4:30 PM 28.4 °F 15.4 °F 23.0 °F 80% 29.81 in 15.0 mi West 19.6 mph 29.9 mph N/A   Overcast
5:30 PM 26.6 °F 12.0 °F 21.2 °F 80% 29.82 in 15.0 mi West 23.0 mph 33.4 mph N/A   Mostly Cloudy
6:30 PM 26.6 °F 12.4 °F 19.4 °F 74% 29.87 in 15.0 mi WSW 21.9 mph 31.1 mph N/A   Overcast
7:30 PM 24.8 °F 10.7 °F 17.6 °F 74% 29.93 in 15.0 mi WSW 19.6 mph 28.8 mph N/A   Mostly Cloudy
8:30 PM 23 °F - 14 °F 58% 29.96 in 15 mi West 19.6 mph - -   Partly Cloudy
8:30 PM 23.0 °F 7.6 °F 14.0 °F 68% 29.96 in 15.0 mi West 21.9 mph 29.9 mph N/A   Scattered Clouds
9:30 PM 23.0 °F 8.0 °F 14.0 °F 68% 29.99 in 15.0 mi WSW 20.7 mph 26.5 mph N/A   Scattered Clouds
10:30 PM 21.2 °F 8.3 °F 14.0 °F 74% 30.01 in 15.0 mi West 13.8 mph 23.0 mph N/A   Scattered Clouds
11:30 PM 21.2 °F 6.0 °F 14.0 °F 74% 30.01 in 15.0 mi West 19.6 mph - N/A   Scattered Clouds